Regional Weather Roundup
Issued by NWS Goodland, KS

Home | Current Version | Previous Version | Graphics & Text | Print | Product List | Glossary On
Versions: 1 2 3 4 5 6 7 8 9 10 11 12 13 14 15 16 17 18 19 20 21 22 23 24 25 26 27 28 29 30 31 32 33 34 35 36 37 38 39 40 41 42 43 44 45 46 47 48 49 50
717
ASUS43 KGLD 202259
RWRGLD

GOODLAND FORECAST AREA HOURLY WEATHER ROUNDUP
NATIONAL WEATHER SERVICE GOODLAND KS
400 PM MST FRI JAN 20 2017

...OFFICIAL OBSERVATIONS...

CITY           SKY/WX    TMP DP  RH WIND       PRES   REMARKS
GOODLAND KS    CLOUDY    35  34  96 W8        29.39R
HILL CITY KS   CLOUDY    43  37  79 W6        29.40R
IMPERIAL NEB   CLOUDY    42  34  73 W3        29.36R
MCCOOK NEB     CLOUDY    39  36  89 W5        29.37R
AKRON CO       CLOUDY    39  31  72 NW13      29.38R
BURLINGTON CO  PTCLDY    36  34  92 W10       29.39F
LIMON CO       CLOUDY    39  33  79 SW7       29.39R
$$

...UNOFFICIAL OBSERVATIONS...

CITY           SKY/WX    TMP DP  RH WIND       PRES   REMARKS
LENORA KS        N/A     40  32  73 CALM        N/A
NORTON KS      CLOUDY    39  34  81 CALM      29.37R
SHARON SPRINGS   N/A     34  33  95 W7          N/A
TRENTON NEB      N/A     37  32  82 CALM        N/A
KIT CARSON CO    N/A     35  32  90 CALM        N/A
YUMA CO        MOCLDY    36  32  87 W8        29.38R
$$




USA.gov is the U.S. government's official web portal to all federal, state and local government web resources and services.